User: anonymous   Login
Location: Unspecified
(0.0000°N, 0.0000°E)
Time: 20:16:22
(UTC+00:00)
Language:

TBA - TO BE ASSIGNED - Orbit

View from above orbital plane
View from above orbital plane
View from above satellite
View from above satellite

Ground track
Ground track

The orbit is defined by the following mean orbital elements,

1 67579U          26145.15718117 +.00000000 +00000-0 +38681-3 0 00005
2 67579  97.2845 205.4964 0001143  85.1351 275.0022 15.33451670    06
Epoch (UTC): 25 May 2026 03:46:20
Eccentricity: 0.0001143
inclination: 97.2845°
perigee height: 465 km
apogee height: 466 km
right ascension of ascending node: 205.4964°
argument of perigee: 85.1351°
revolutions per day: 15.33451670
mean anomaly at epoch: 275.0022°

The dashed part of the orbit path shows where the satellite is in the earth's shadow,  

DLR